Weather in White Rock

Canada     49°01′55″N   122°48′03″W
temp.,
°C
wind,
m/s
gust,
m/s
humid.,
%
clouds,
%
prec.,
mm/h
press.,
hPa
HPBL,
m
17 september, fri
fri1723:00+12nnw1168100 0.0 101312
02:00+12nne2172100 0.0 101125
05:00+10ne2385100 0.5 1010107
08:00+10ene4797100 4.4 1008296
11:00+10ene4797100 12.9 1007428
14:00+11ese41194100 12.5 1004789
17:00+11ese51297100 25.0 1002646
20:00+13ssw71595100 17.3 1000747
18 september, sat
sat1823:00+13sse4899100 25.3 1000329
02:00+13ssw71494100 3.7 1001709
05:00+13s61296100 7.5 1003704
08:00+12ssw48874 0.2 1004225
11:00+15ssw477526 0.8 1006697
14:00+15sse3573100 1.1 1007704
17:00+12nw2294100 4.6 100793
20:00+11ne3697100 2.7 1007259
19 september, sun
sun1923:00+11ene2497100 5.6 1008215
02:00+11sse2597100 0.6 1009255
05:00+11se2397100 1.5 1010171
08:00+11se2395100 0.7 1012166
11:00+13sse369371 1.6 1015464
14:00+15s458326 1.5 1017646
17:00+15s488270 2.5 1018552
20:00+12s4893100 1.1 1019223
20 september, mon
mon2023:00+11se24949 1.7 102191
02:00+10se349616 0.0 1023119
05:00+12ssw479499 0.1 1024378
08:00+11s369699 0.1 1026319
11:00+13s359179 0.2 1027491
14:00+16ssw2371100 0.3 1027794
17:00+16wsw016898 0.3 1026500
20:00+12nne1190100 0.0 102611
21 september, tue
tue2123:00+11ne1193100 0.0 102619
02:00+10ne22946 0.0 102534
05:00+9ne22925 0.0 102442
08:00+10ne23855 0.0 102382
11:00+17nnw12580 0.0 1021384
14:00+19w32560 0.0 1019511
17:00+18wnw23634 0.0 1016226
20:00+13nw00830 0.0 101510